Tiempo cada hora Bolshie Kirilly

Hoy, 2 Agosto, Lunes

Tiempo Temperatura Precipitaciones Viento Presión Humedad
00:00 +19°C° 0.1 mm 2 mps 740 mmHg 89%
01:00 +19°C° 0.1 mm 2 mps 740 mmHg 92%
02:00 +19°C° 0.1 mm 2 mps 740 mmHg 94%
03:00 +19°C° 0.2 mm 2 mps 739 mmHg 95%
04:00 +19°C° 0.2 mm 2 mps 739 mmHg 95%
05:00 +18°C° 0.2 mm 3 mps 739 mmHg 95%
06:00 +20°C° 0 mm 3 mps 739 mmHg 89%
07:00 +22°C° 0 mm 4 mps 738 mmHg 83%
08:00 +23°C° 0 mm 4 mps 738 mmHg 77%
09:00 +26°C° 0 mm 5 mps 738 mmHg 70%
10:00 +28°C° 0 mm 6 mps 737 mmHg 63%
11:00 +30°C° 0 mm 6 mps 737 mmHg 56%
12:00 +32°C° 0 mm 7 mps 737 mmHg 53%
13:00 +32°C° 0 mm 7 mps 736 mmHg 50%
14:00 +33°C° 0 mm 7 mps 736 mmHg 47%
15:00 +32°C° 0 mm 6 mps 736 mmHg 50%
16:00 +29°C° 0 mm 6 mps 736 mmHg 53%
17:00 +28°C° 0 mm 5 mps 736 mmHg 56%
18:00 +26°C° 0.1 mm 5 mps 736 mmHg 62%
19:00 +23°C° 0.1 mm 4 mps 737 mmHg 69%
20:00 +21°C° 0.1 mm 4 mps 737 mmHg 75%
21:00 +20°C° 0 mm 4 mps 738 mmHg 79%
22:00 +18°C° 0 mm 3 mps 738 mmHg 83%
23:00 +17°C° 0 mm 3 mps 739 mmHg 87%

Mañana, 3 Agosto, Martes

Tiempo Temperatura Precipitaciones Viento Presión Humedad
00:00 +16°C° 0 mm 2 mps 739 mmHg 90%
01:00 +15°C° 0 mm 2 mps 739 mmHg 93%
02:00 +14°C° 0 mm 2 mps 740 mmHg 96%
03:00 +14°C° 0 mm 2 mps 740 mmHg 96%
04:00 +14°C° 0 mm 2 mps 740 mmHg 96%
05:00 +14°C° 0 mm 2 mps 741 mmHg 96%
06:00 +16°C° 0 mm 2 mps 741 mmHg 88%
07:00 +17°C° 0 mm 3 mps 741 mmHg 79%
08:00 +19°C° 0 mm 3 mps 742 mmHg 71%
09:00 +20°C° 0.1 mm 4 mps 742 mmHg 64%
10:00 +21°C° 0.1 mm 4 mps 742 mmHg 57%
11:00 +22°C° 0.1 mm 4 mps 742 mmHg 50%
12:00 +22°C° 0 mm 4 mps 742 mmHg 49%
13:00 +22°C° 0 mm 4 mps 742 mmHg 48%
14:00 +22°C° 0 mm 4 mps 742 mmHg 47%
15:00 +22°C° 0 mm 4 mps 742 mmHg 48%
16:00 +22°C° 0 mm 3 mps 742 mmHg 48%
17:00 +22°C° 0 mm 3 mps 742 mmHg 49%
18:00 +21°C° 0 mm 3 mps 743 mmHg 52%
19:00 +20°C° 0 mm 2 mps 743 mmHg 55%
20:00 +19°C° 0 mm 2 mps 743 mmHg 57%
21:00 +17°C° 0 mm 2 mps 743 mmHg 62%
22:00 +16°C° 0 mm 2 mps 744 mmHg 67%
23:00 +15°C° 0 mm 2 mps 744 mmHg 72%

Pasado mañana, 4 Agosto, Miércoles

Tiempo Temperatura Precipitaciones Viento Presión Humedad
00:00 +14°C° 0 mm 2 mps 744 mmHg 74%
01:00 +14°C° 0 mm 2 mps 744 mmHg 77%
02:00 +13°C° 0 mm 2 mps 745 mmHg 79%
03:00 +13°C° 0 mm 2 mps 745 mmHg 80%
04:00 +13°C° 0 mm 2 mps 745 mmHg 81%
05:00 +14°C° 0 mm 2 mps 745 mmHg 81%
06:00 +15°C° 0 mm 2 mps 745 mmHg 76%
07:00 +17°C° 0 mm 2 mps 746 mmHg 71%
08:00 +19°C° 0 mm 3 mps 746 mmHg 65%
09:00 +21°C° 0 mm 3 mps 746 mmHg 60%
10:00 +22°C° 0 mm 3 mps 746 mmHg 54%
11:00 +24°C° 0 mm 3 mps 746 mmHg 49%
12:00 +24°C° 0 mm 3 mps 746 mmHg 48%
13:00 +25°C° 0 mm 3 mps 746 mmHg 46%
14:00 +25°C° 0 mm 2 mps 746 mmHg 45%
15:00 +24°C° 0 mm 2 mps 746 mmHg 50%
16:00 +23°C° 0 mm 2 mps 746 mmHg 56%
17:00 +22°C° 0 mm 1 mps 746 mmHg 61%
18:00 +21°C° 0 mm 1 mps 746 mmHg 61%
19:00 +21°C° 0 mm 1 mps 746 mmHg 61%
20:00 +20°C° 0 mm 1 mps 746 mmHg 61%
21:00 +20°C° 0 mm 1 mps 746 mmHg 62%
22:00 +20°C° 0 mm 1 mps 746 mmHg 62%
23:00 +19°C° 0 mm 1 mps 746 mmHg 63%

5 Agosto, Jueves

Tiempo Temperatura Precipitaciones Viento Presión Humedad
00:00 +16°C° 0 mm 0 mps 746 mmHg 67%
01:00 +15°C° 0 mm 0 mps 746 mmHg 71%
02:00 +15°C° 0 mm 0 mps 746 mmHg 75%
03:00 +15°C° 0 mm 0 mps 746 mmHg 75%
04:00 +15°C° 0 mm 1 mps 746 mmHg 76%
05:00 +15°C° 0 mm 1 mps 747 mmHg 77%
06:00 +18°C° 0 mm 1 mps 747 mmHg 71%
07:00 +20°C° 0 mm 1 mps 747 mmHg 65%
08:00 +22°C° 0 mm 1 mps 747 mmHg 59%
09:00 +23°C° 0 mm 2 mps 747 mmHg 57%
10:00 +23°C° 0 mm 2 mps 747 mmHg 55%
11:00 +24°C° 0 mm 3 mps 747 mmHg 53%
12:00 +24°C° 0 mm 3 mps 747 mmHg 54%
13:00 +23°C° 0 mm 4 mps 747 mmHg 55%
14:00 +23°C° 0 mm 4 mps 747 mmHg 56%
15:00 +22°C° 0 mm 4 mps 746 mmHg 59%
16:00 +21°C° 0 mm 3 mps 746 mmHg 63%
17:00 +20°C° 0 mm 3 mps 746 mmHg 66%
18:00 +19°C° 0 mm 3 mps 746 mmHg 72%
19:00 +18°C° 0 mm 2 mps 746 mmHg 78%
20:00 +16°C° 0 mm 2 mps 746 mmHg 83%
21:00 +16°C° 0 mm 2 mps 746 mmHg 87%
22:00 +15°C° 0 mm 2 mps 745 mmHg 90%
23:00 +15°C° 0 mm 2 mps 745 mmHg 94%

6 Agosto, Viernes

Tiempo Temperatura Precipitaciones Viento Presión Humedad
00:00 +14°C° 0 mm 3 mps 745 mmHg 93%
01:00 +14°C° 0 mm 3 mps 745 mmHg 92%
02:00 +14°C° 0 mm 3 mps 745 mmHg 92%
03:00 +14°C° 0 mm 4 mps 745 mmHg 90%
04:00 +15°C° 0 mm 4 mps 744 mmHg 88%
05:00 +15°C° 0 mm 4 mps 744 mmHg 86%
06:00 +17°C° 0.1 mm 4 mps 744 mmHg 84%
07:00 +17°C° 0.1 mm 4 mps 744 mmHg 82%
08:00 +17°C° 0.1 mm 4 mps 743 mmHg 80%
09:00 +19°C° 0 mm 5 mps 743 mmHg 75%
10:00 +20°C° 0 mm 5 mps 743 mmHg 70%
11:00 +21°C° 0 mm 6 mps 743 mmHg 65%
12:00 +24°C° 0 mm 6 mps 742 mmHg 57%
13:00 +27°C° 0 mm 6 mps 742 mmHg 50%
14:00 +30°C° 0 mm 6 mps 742 mmHg 42%
15:00 +29°C° 0 mm 6 mps 741 mmHg 43%
16:00 +29°C° 0 mm 6 mps 741 mmHg 45%
17:00 +29°C° 0 mm 5 mps 740 mmHg 46%
18:00 +27°C° 0.1 mm 5 mps 741 mmHg 54%
19:00 +25°C° 0.1 mm 4 mps 741 mmHg 62%
20:00 +22°C° 0.1 mm 4 mps 741 mmHg 70%
21:00 +21°C° 1.3 mm 3 mps 741 mmHg 78%
22:00 +20°C° 1.3 mm 3 mps 742 mmHg 86%
23:00 +19°C° 1.3 mm 3 mps 742 mmHg 94%

7 Agosto, Sábado

Tiempo Temperatura Precipitaciones Viento Presión Humedad
00:00 +18°C° 0.2 mm 3 mps 742 mmHg 95%
01:00 +18°C° 0.2 mm 2 mps 742 mmHg 95%
02:00 +18°C° 0.2 mm 2 mps 742 mmHg 95%
03:00 +18°C° 0 mm 2 mps 742 mmHg 95%
04:00 +19°C° 0 mm 1 mps 743 mmHg 96%
05:00 +19°C° 0 mm 1 mps 743 mmHg 96%
06:00 +19°C° 0.1 mm 1 mps 743 mmHg 94%
07:00 +20°C° 0.1 mm 1 mps 743 mmHg 91%
08:00 +19°C° 0.1 mm 0 mps 743 mmHg 89%
09:00 +21°C° 1.3 mm 1 mps 743 mmHg 91%
10:00 +21°C° 1.3 mm 1 mps 743 mmHg 93%
11:00 +20°C° 1.3 mm 2 mps 744 mmHg 94%
12:00 +19°C° 3.1 mm 2 mps 744 mmHg 95%
13:00 +19°C° 3.1 mm 2 mps 744 mmHg 96%
14:00 +19°C° 3.1 mm 2 mps 744 mmHg 96%
15:00 +19°C° 1.6 mm 2 mps 745 mmHg 96%
16:00 +20°C° 1.6 mm 1 mps 745 mmHg 96%
17:00 +19°C° 1.6 mm 1 mps 745 mmHg 96%
18:00 +19°C° 0 mm 1 mps 745 mmHg 96%
19:00 +19°C° 0 mm 1 mps 745 mmHg 96%
20:00 +18°C° 0 mm 1 mps 746 mmHg 96%
21:00 +18°C° 0 mm 1 mps 746 mmHg 96%
22:00 +18°C° 0 mm 1 mps 746 mmHg 97%
23:00 +18°C° 0 mm 1 mps 746 mmHg 97%
Mostrar más